Weather History for KVAD - February, 2014

Change the Weather History Date:

Sunday, February 2, 2014

  Actual Average Record
Temperature  
Mean Temperature 65 °F -  
Max Temperature 75 °F 61 °F 75 °F (2014)
Min Temperature 55 °F 42 °F 28 °F (2013)
Growing Degree Days 15 (Base 50)    
Moisture  
Dew Point 58 °F    
Average Humidity 98    
Maximum Humidity 100    
Minimum Humidity 54    
Precipitation  
Precipitation 0.00 in - - ()
Sea Level Pressure  
Sea Level Pressure 30.12 in    
Wind  
Wind Speed 3 mph (ESE)    
Max Wind Speed 10 mph    
Max Gust Speed -    
Visibility 4 miles    
Events Fog    
Averages and records for this station are not official NWS values.
T = Trace of Precipitation, MM = Missing Value Source: NWS Daily Summary

Daily Weather History Graph

Daily Weather History Graph

Search for Another Location

Airport or City:

Trip Planner

Search our weather history database for the weather conditions in past years. The results will help you decide how hot, cold, wet, or windy it might be!

Date:

Astronomy

Feb. 02, 2014 Rise Set
Actual Time 7:23 AM EST 6:09 PM EST
Civil Twilight 6:58 AM EST 6:34 PM EST
Nautical Twilight 6:29 AM EST 7:03 PM EST
Astronomical Twilight 6:01 AM EST 7:32 PM EST
Moon 9:05 AM EST (2/2) 9:34 PM EST (2/2)
Length of Visible Light 11h 35m
Length of Day
10h 45m
Waxing Crescent, 11% of the Moon is Illuminated
Feb 2
Waxing Crescent
Feb 6
First Quarter
Feb 14
Full
Feb 22
Last Quarter
Mar 1
New

Hourly Weather History & Observations

Time (EST) Temp. Dew Point Humidity Pressure Visibility Wind Dir Wind Speed Gust Speed Precip Events Conditions
12:20 AM 55.4 °F 55.4 °F 100% 30.16 in 5.0 mi North 3.5 mph - N/A   Overcast
12:36 AM 55.4 °F 55.4 °F 100% 30.15 in 5.0 mi NNE 3.5 mph - N/A   Overcast
12:58 AM 55.8 °F 55.8 °F 100% 30.16 in 4.0 mi ENE 3.5 mph - N/A   Overcast
1:38 AM 55.4 °F 55.4 °F 100% 30.15 in 5.0 mi NNE 1.2 mph - N/A   Overcast
1:58 AM 55.6 °F 55.6 °F 100% 30.16 in 5.0 mi North 1.2 mph - N/A   Overcast
2:04 AM 55.4 °F 55.4 °F 100% 30.15 in 5.0 mi NNE 2.3 mph - N/A   Overcast
2:30 AM 55.4 °F 55.4 °F 100% 30.15 in 2.5 mi Calm Calm - N/A   Overcast
2:38 AM 55.4 °F 55.4 °F 100% 30.14 in 3.0 mi ESE 2.3 mph - N/A   Overcast
2:40 AM 55.4 °F 55.4 °F 100% 30.14 in 2.5 mi East 2.3 mph - N/A   Overcast
2:56 AM 55.4 °F 55.4 °F 100% 30.13 in 1.8 mi East 3.5 mph - N/A   Overcast
2:58 AM 55.6 °F 55.6 °F 100% 30.14 in 1.8 mi East 3.5 mph - N/A   Overcast
3:04 AM 55.4 °F 55.4 °F 100% 30.13 in 2.0 mi East 2.3 mph - N/A   Overcast
3:12 AM 55.4 °F 55.4 °F 100% 30.13 in 3.0 mi East 2.3 mph - N/A   Overcast
3:14 AM 55.4 °F 55.4 °F 100% 30.13 in 2.5 mi East 2.3 mph - N/A   Overcast
3:16 AM 55.4 °F 55.4 °F 100% 30.13 in 3.0 mi East 2.3 mph - N/A   Overcast
3:20 AM 55.4 °F 55.4 °F 100% 30.13 in 2.5 mi East 2.3 mph - N/A   Overcast
3:24 AM 55.4 °F 55.4 °F 100% 30.13 in 3.0 mi East 2.3 mph - N/A   Overcast
3:28 AM 55.4 °F 55.4 °F 100% 30.13 in 2.5 mi ENE 2.3 mph - N/A   Overcast
3:36 AM 55.4 °F 55.4 °F 100% 30.13 in 1.8 mi ENE 2.3 mph - N/A   Overcast
3:50 AM 55.4 °F 55.4 °F 100% 30.13 in 2.0 mi East 2.3 mph - N/A   Overcast
3:58 AM 55.4 °F 55.4 °F 100% 30.14 in 3.0 mi East 2.3 mph - N/A   Overcast
4:10 AM 55.4 °F 55.4 °F 100% 30.13 in 3.0 mi ENE 2.3 mph - N/A   Overcast
4:20 AM 55.4 °F 55.4 °F 100% 30.13 in 5.0 mi East 2.3 mph - N/A   Overcast
4:22 AM 55.4 °F 55.4 °F 100% 30.13 in 5.0 mi East 2.3 mph - N/A   Overcast
4:26 AM 55.4 °F 55.4 °F 100% 30.13 in 5.0 mi East 2.3 mph - N/A   Overcast
4:58 AM 55.9 °F 55.9 °F 100% 30.14 in 4.0 mi North 1.2 mph - N/A   Overcast
5:08 AM 55.4 °F 55.4 °F 100% 30.13 in 2.5 mi NNW 2.3 mph - N/A   Overcast
5:18 AM 55.4 °F 55.4 °F 100% 30.13 in 2.0 mi NNW 2.3 mph - N/A   Overcast
5:30 AM 55.4 °F 55.4 °F 100% 30.14 in 1.8 mi Calm Calm - N/A   Overcast
5:34 AM 55.4 °F 55.4 °F 100% 30.14 in 1.2 mi East 3.5 mph - N/A   Overcast
5:36 AM 55.4 °F 55.4 °F 100% 30.14 in 1.5 mi ESE 2.3 mph - N/A   Overcast
5:42 AM 55.4 °F 55.4 °F 100% 30.14 in 2.0 mi Variable 2.3 mph - N/A   Overcast
5:48 AM 55.4 °F 55.4 °F 100% 30.14 in 1.8 mi ENE 3.5 mph - N/A   Overcast
5:56 AM 55.4 °F 55.4 °F 100% 30.14 in 1.2 mi ENE 3.5 mph - N/A   Overcast
5:58 AM 55.6 °F 55.6 °F 100% 30.15 in 1.2 mi ENE 4.6 mph - N/A   Overcast
6:04 AM 55.4 °F 55.4 °F 100% 30.14 in 1.0 mi ENE 3.5 mph - N/A   Overcast
6:06 AM 55.4 °F 55.4 °F 100% 30.14 in 1.0 mi ENE 2.3 mph - N/A   Mist
6:14 AM 55.4 °F 55.4 °F 100% 30.14 in 0.8 mi East 3.5 mph - N/A   Mist
6:16 AM 55.4 °F 55.4 °F 100% 30.14 in 0.8 mi East 3.5 mph - N/A   Mist
6:30 AM 55.4 °F 55.4 °F 100% 30.15 in 0.8 mi ENE 2.3 mph - N/A   Mist
6:34 AM 55.4 °F 55.4 °F 100% 30.15 in 0.5 mi ENE 2.3 mph - N/A Fog Fog
6:36 AM 55.4 °F 55.4 °F 100% 30.15 in 0.8 mi Variable 1.2 mph - N/A   Mist
6:38 AM 55.4 °F 55.4 °F 100% 30.15 in 0.8 mi NNE 2.3 mph - N/A   Mist
6:50 AM 55.4 °F 55.4 °F 100% 30.15 in 0.8 mi ENE 4.6 mph - N/A   Mist
6:52 AM 55.4 °F 55.4 °F 100% 30.15 in 0.5 mi ENE 4.6 mph - N/A Fog Fog
6:58 AM 55.0 °F 55.0 °F 100% 30.16 in 0.5 mi ENE 2.3 mph - N/A Fog Fog
7:04 AM 55.4 °F 55.4 °F 100% 30.15 in 0.8 mi NE 3.5 mph - N/A   Mist
7:06 AM 55.4 °F 55.4 °F 100% 30.15 in 0.8 mi ENE 3.5 mph - N/A   Mist
7:16 AM 55.4 °F 55.4 °F 100% 30.15 in 0.5 mi East 3.5 mph - N/A Fog Fog
7:20 AM 55.4 °F 55.4 °F 100% 30.15 in 0.2 mi East 2.3 mph - N/A Fog Fog
7:56 AM 55.4 °F 55.4 °F 100% 30.16 in 0.2 mi East 1.2 mph - N/A Fog Fog
7:58 AM 55.2 °F 55.2 °F 100% 30.17 in 0.2 mi NE 1.2 mph - N/A Fog Fog
8:12 AM 55.4 °F 55.4 °F 100% 30.16 in 0.5 mi NNW 1.2 mph - N/A Fog Fog
8:14 AM 55.4 °F 55.4 °F 100% 30.16 in 0.5 mi North 1.2 mph - N/A Fog Fog
8:26 AM 55.4 °F 55.4 °F 100% 30.17 in 0.5 mi Calm Calm - N/A Fog Fog
8:32 AM 55.4 °F 55.4 °F 100% 30.17 in 0.5 mi ENE 1.2 mph - N/A Fog Fog
8:42 AM 55.4 °F 55.4 °F 100% 30.18 in 0.8 mi Variable 1.2 mph - N/A   Mist
8:44 AM 55.4 °F 55.4 °F 100% 30.17 in 0.8 mi Calm Calm - N/A   Mist
8:48 AM 55.4 °F 55.4 °F 100% 30.18 in 0.8 mi South 2.3 mph - N/A   Mist
8:50 AM 55.4 °F 55.4 °F 100% 30.18 in 1.0 mi Variable 2.3 mph - N/A   Mist
8:52 AM 55.4 °F 55.4 °F 100% 30.18 in 1.0 mi ESE 3.5 mph - N/A   Mist
8:54 AM 55.4 °F 55.4 °F 100% 30.18 in 1.2 mi ESE 3.5 mph - N/A   Overcast
8:58 AM 55.4 °F 55.4 °F 100% 30.19 in 1.2 mi South 2.3 mph - N/A   Overcast
9:06 AM 57.2 °F 57.2 °F 100% 30.18 in 1.5 mi South 3.5 mph - N/A   Overcast
9:10 AM 57.2 °F 57.2 °F 100% 30.18 in 2.0 mi Calm Calm - N/A   Overcast
9:12 AM 57.2 °F 57.2 °F 100% 30.18 in 2.0 mi Calm Calm - N/A   Overcast
9:16 AM 57.2 °F 57.2 °F 100% 30.18 in 3.0 mi ESE 2.3 mph - N/A   Overcast
9:26 AM 57.2 °F 57.2 °F 100% 30.18 in 2.5 mi ENE 2.3 mph - N/A   Overcast
9:32 AM 57.2 °F 57.2 °F 100% 30.18 in 3.0 mi SE 3.5 mph - N/A   Overcast
9:58 AM 57.9 °F 57.9 °F 100% 30.20 in 6.0 mi SSE 4.6 mph - N/A   Overcast
10:24 AM 59.0 °F 59.0 °F 100% 30.19 in 10.0 mi SE 4.6 mph - N/A   Overcast
10:58 AM 59.0 °F 59.0 °F 100% 30.19 in 10.0 mi Variable 2.3 mph - N/A   Overcast
11:06 AM 59.0 °F 59.0 °F 100% 30.18 in 10.0 mi Variable 1.2 mph - N/A   Overcast
11:36 AM 62.6 °F 62.6 °F 100% 30.16 in 10.0 mi Variable 4.6 mph - N/A   Scattered Clouds
11:58 AM 64.6 °F 64.6 °F 100% 30.16 in 10.0 mi Variable 4.6 mph - N/A   Scattered Clouds
12:58 PM 70.5 °F 60.8 °F 71% 30.14 in 10.0 mi SSE 3.5 mph - N/A   Mostly Cloudy
1:58 PM 73.9 °F 59.7 °F 61% 30.10 in 10.0 mi SE 9.2 mph - N/A   Partly Cloudy
2:58 PM 75.4 °F 57.9 °F 54% 30.09 in 10.0 mi SE 6.9 mph - N/A   Partly Cloudy
3:58 PM 73.6 °F 58.8 °F 60% 30.07 in 10.0 mi SE 8.1 mph - N/A   Overcast
4:58 PM 74.3 °F 61.7 °F 65% 30.07 in 10.0 mi South 6.9 mph - N/A   Overcast
5:58 PM 72.0 °F 62.8 °F 73% 30.07 in 10.0 mi SSE 4.6 mph - N/A   Mostly Cloudy
6:58 PM 67.3 °F 63.5 °F 88% 30.07 in 10.0 mi SSE 2.3 mph - N/A   Mostly Cloudy
7:58 PM 66.0 °F 64.6 °F 95% 30.07 in 10.0 mi SE 4.6 mph - N/A   Scattered Clouds
8:54 PM 62.6 °F 62.6 °F 100% 30.06 in 8.0 mi Calm Calm - N/A   Clear
8:58 PM 62.2 °F 62.2 °F 100% 30.08 in 5.0 mi Calm Calm - N/A   Clear
9:06 PM 62.6 °F 62.6 °F 100% 30.06 in 6.0 mi Calm Calm - N/A   Clear
9:08 PM 62.6 °F 62.6 °F 100% 30.07 in 9.0 mi Calm Calm - N/A   Clear
9:12 PM 62.6 °F 62.6 °F 100% 30.07 in 7.0 mi Calm Calm - N/A   Clear
9:14 PM 62.6 °F 62.6 °F 100% 30.07 in 4.0 mi Calm Calm - N/A   Clear
9:16 PM 62.6 °F 62.6 °F 100% 30.06 in 3.0 mi SSW 1.2 mph - N/A   Clear
9:24 PM 62.6 °F 62.6 °F 100% 30.07 in 5.0 mi South 1.2 mph - N/A   Clear
9:26 PM 62.6 °F 62.6 °F 100% 30.07 in 8.0 mi South 1.2 mph - N/A   Clear
9:38 PM 60.8 °F 60.8 °F 100% 30.07 in 9.0 mi South 2.3 mph - N/A   Partly Cloudy
9:46 PM 60.8 °F 60.8 °F 100% 30.07 in 2.5 mi South 3.5 mph - N/A   Scattered Clouds
9:50 PM 60.8 °F 60.8 °F 100% 30.07 in 1.8 mi South 3.5 mph - N/A   Mostly Cloudy
9:52 PM 60.8 °F 60.8 °F 100% 30.07 in 1.5 mi South 2.3 mph - N/A   Scattered Clouds
9:54 PM 60.8 °F 60.8 °F 100% 30.06 in 1.0 mi South 2.3 mph - N/A   Scattered Clouds
9:56 PM 60.8 °F 60.8 °F 100% 30.07 in 1.2 mi South 3.5 mph - N/A   Scattered Clouds
9:58 PM 61.5 °F 61.5 °F 100% 30.08 in 1.2 mi South 3.5 mph - N/A   Mostly Cloudy
10:04 PM 60.8 °F 60.8 °F 100% 30.07 in 1.8 mi South 3.5 mph - N/A   Mostly Cloudy
10:06 PM 60.8 °F 60.8 °F 100% 30.07 in 2.5 mi South 3.5 mph - N/A   Mostly Cloudy
10:08 PM 60.8 °F 60.8 °F 100% 30.07 in 4.0 mi South 3.5 mph - N/A   Mostly Cloudy
10:18 PM 60.8 °F 60.8 °F 100% 30.07 in 7.0 mi South 3.5 mph - N/A   Mostly Cloudy
10:24 PM 60.8 °F 60.8 °F 100% 30.07 in 4.0 mi South 4.6 mph - N/A   Scattered Clouds
10:26 PM 60.8 °F 60.8 °F 100% 30.06 in 4.0 mi SSE 4.6 mph - N/A   Scattered Clouds
10:34 PM 60.8 °F 60.8 °F 100% 30.06 in 5.0 mi SSE 5.8 mph - N/A   Mostly Cloudy
10:36 PM 60.8 °F 60.8 °F 100% 30.06 in 4.0 mi SSE 5.8 mph - N/A   Mostly Cloudy
10:44 PM 60.8 °F 60.8 °F 100% 30.06 in 6.0 mi SSE 5.8 mph - N/A   Scattered Clouds
10:46 PM 60.8 °F 60.8 °F 100% 30.07 in 8.0 mi SSE 5.8 mph - N/A   Mostly Cloudy
10:58 PM 60.8 °F 60.8 °F 100% 30.08 in 9.0 mi SSE 5.8 mph - N/A   Scattered Clouds
11:08 PM 60.8 °F 60.8 °F 100% 30.07 in 8.0 mi SSE 5.8 mph - N/A   Mostly Cloudy
11:14 PM 60.8 °F 60.8 °F 100% 30.07 in 7.0 mi SSE 5.8 mph - N/A   Mostly Cloudy
11:32 PM 62.6 °F 62.6 °F 100% 30.06 in 7.0 mi SSE 8.1 mph - N/A   Overcast
11:50 PM 64.4 °F 64.4 °F 100% 30.06 in 8.0 mi SSE 10.4 mph - N/A   Overcast
11:58 PM 64.8 °F 64.8 °F 100% 30.07 in 8.0 mi SSE 10.4 mph - N/A   Overcast